CW9665 Weather Reports


time (UTC)temp
C
wind
direction
speed
KPH
gust
KPH
rain 1hr
cm
rain 24hr
cm
rain mn
cm
humidity
%
barometer
mb
20260906220924 29 149 3.2 3.2 0.00 0.00 0.00 24 1021.7
20260906215918 29 146 1.6 1.6 0.00 0.00 0.00 24 1021.9
20260906214917 30 181 3.2 3.2 0.00 0.00 0.00 23 1022.2
20260906213916 30 168 0.0 1.6 0.00 0.00 0.00 25 1022.2
20260906212913 30 180 3.2 3.2 0.00 0.00 0.00 25 1022.4
20260906211909 30 133 3.2 4.8 0.00 0.00 0.00 24 1022.7
20260906210904 29 137 3.2 4.8 0.00 0.00 0.00 26 1022.9
20260906205900 28 170 3.2 3.2 0.00 0.00 0.00 28 1023.1
20260906204858 29 159 1.6 1.6 0.00 0.00 0.00 26 1023.3
20260906203856 27 180 3.2 3.2 0.00 0.00 0.00 29 1023.1
20260906202855 26 152 0.0 0.0 0.00 0.00 0.00 31 1023.7
20260906201855 27 144 1.6 3.2 0.00 0.00 0.00 29 1023.6
20260906200851 27 159 0.0 1.6 0.00 0.00 0.00 32 1023.4
20260906195847 27 129 1.6 1.6 0.00 0.00 0.00 32 1023.4
20260906194845 26 145 1.6 1.6 0.00 0.00 0.00 32 1024.0
20260906193842 26 148 1.6 1.6 0.00 0.00 0.00 37 1024.0
20260906192838 26 148 3.2 3.2 0.00 0.00 0.00 34 1024.1
20260906191838 25 154 1.6 1.6 0.00 0.00 0.00 34 1024.2
20260906190838 26 164 1.6 1.6 0.00 0.00 0.00 33 1024.2
20260906185838 28 177 3.2 3.2 0.00 0.00 0.00 28 1024.3
20260906184837 27 156 3.2 4.8 0.00 0.00 0.00 30 1024.6
20260906183833 26 166 3.2 4.8 0.00 0.00 0.00 32 1024.7
20260906182829 26 151 1.6 1.6 0.00 0.00 0.00 32 1024.8
20260906181825 26 155 3.2 3.2 0.00 0.00 0.00 31 1025.0
20260906180823 26 157 1.6 1.6 0.00 0.00 0.00 33 1025.0
20260906175821 26 150 3.2 4.8 0.00 0.00 0.00 30 1025.1
20260906174815 25 164 1.6 1.6 0.00 0.00 0.00 32 1025.5
20260906173810 25 149 3.2 3.2 0.00 0.00 0.00 35 1025.6
20260906172810 25 150 0.0 1.6 0.00 0.00 0.00 37 1025.6
20260906171807 24 147 4.8 4.8 0.00 0.00 0.00 36 1025.8
20260906170804 23 155 1.6 1.6 0.00 0.00 0.00 41 1026.0
20260906165802 24 153 1.6 1.6 0.00 0.00 0.00 40 1025.7
20260906164801 25 157 3.2 3.2 0.00 0.00 0.00 39 1025.8
20260906163757 25 148 3.2 4.8 0.00 0.00 0.00 38 1025.6
20260906162757 24 142 1.6 1.6 0.00 0.00 0.00 39 1025.7
20260906161756 22 149 1.6 1.6 0.00 0.00 0.00 42 1025.7
20260906160754 23 151 3.2 3.2 0.00 0.00 0.00 40 1025.8
20260906155752 24 156 1.6 1.6 0.00 0.00 0.00 36 1025.7
20260906154749 24 155 4.8 6.4 0.00 0.00 0.00 36 1025.7
20260906153748 25 160 0.0 1.6 0.00 0.00 0.00 36 1025.5
20260906152744 23 156 0.0 0.0 0.00 0.00 0.00 37 1025.5
20260906151744 22 146 1.6 1.6 0.00 0.00 0.00 38 1025.3
20260906150741 21 185 3.2 3.2 0.00 0.00 0.00 42 1025.8
20260906145735 20 185 0.0 0.0 0.00 0.00 0.00 47 1025.6
20260906144735 19 185 0.0 0.0 0.00 0.00 0.00 46 1025.3
20260906143735 18 185 0.0 0.0 0.00 0.00 0.00 51 1025.3
20260906142732 18 185 1.6 1.6 0.00 0.00 0.00 50 1025.2
20260906141732 17 185 3.2 1.6 0.00 0.00 0.00 50 1025.1
20260906140727 16 186 3.2 3.2 0.00 0.00 0.00 52 1025.1
20260906135724 15 185 1.6 1.6 0.00 0.00 0.00 58 1025.2
20260906134721 15 185 3.2 3.2 0.00 0.00 0.00 54 1025.0
20260906133718 15 185 1.6 0.0 0.00 0.00 0.00 55 1025.2
20260906132714 14 185 1.6 1.6 0.00 0.00 0.00 55 1024.7
20260906131711 13 181 1.6 1.6 0.00 0.00 0.00 58 1024.8
20260906130707 13 181 1.6 1.6 0.00 0.00 0.00 56 1024.5
20260906125707 13 169 1.6 1.6 0.00 0.00 0.00 55 1024.7
20260906124706 12 164 1.6 1.6 0.00 0.00 0.00 59 1024.3
20260906123706 13 164 0.0 0.0 0.00 0.00 0.00 59 1024.2
20260906122701 13 164 0.0 0.0 0.00 0.00 0.00 57 1024.1
20260906121659 13 165 0.0 1.6 0.00 0.00 0.00 57 1024.2
20260906120656 15 165 0.0 0.0 0.00 0.00 0.00 53 1024.0
20260906115653 14 139 3.2 3.2 0.00 0.00 0.00 54 1023.8
20260906114653 14 172 1.6 1.6 0.00 0.00 0.00 55 1023.8
20260906113649 14 180 1.6 1.6 0.00 0.00 0.00 56 1024.1
20260906112648 14 180 1.6 0.0 0.00 0.00 0.00 58 1024.0
20260906111645 14 168 1.6 1.6 0.00 0.00 0.00 59 1024.3
20260906110640 14 201 3.2 3.2 0.00 0.00 0.00 58 1024.3
20260906105635 13 161 0.0 0.0 0.00 0.00 0.00 61 1024.2
20260906104631 14 161 0.0 0.0 0.00 0.00 0.00 61 1024.1
20260906103628 15 220 4.8 4.8 0.00 0.00 0.00 59 1024.3
20260906102625 15 175 0.0 0.0 0.00 0.00 0.00 60 1024.1
20260906101620 15 169 1.6 1.6 0.00 0.00 0.00 60 1024.3
20260906100616 13 164 1.6 1.6 0.00 0.00 0.00 61 1024.1
20260906095615 13 152 1.6 1.6 0.00 0.00 0.00 62 1024.6
20260906094610 14 152 1.6 1.6 0.00 0.00 0.00 60 1024.6
20260906093608 13 137 3.2 3.2 0.00 0.00 0.00 62 1024.1
20260906092603 13 140 3.2 3.2 0.00 0.00 0.00 66 1024.2
20260906091559 13 160 1.6 1.6 0.00 0.00 0.00 66 1024.3
20260906090556 13 154 1.6 1.6 0.00 0.00 0.00 67 1024.7
20260906085555 13 154 0.0 0.0 0.00 0.00 0.00 67 1024.7
20260906084551 13 154 0.0 0.0 0.00 0.00 0.00 67 1024.3
20260906083545 14 153 0.0 0.0 0.00 0.00 0.00 66 1024.3
20260906082540 14 153 0.0 0.0 0.00 0.00 0.00 66 1024.6
20260906081537 13 154 0.0 0.0 0.00 0.00 0.00 65 1024.7
20260906080535 13 154 0.0 0.0 0.00 0.00 0.00 65 1024.3
20260906075531 13 154 0.0 0.0 0.00 0.00 0.00 66 1024.5
20260906074526 14 154 0.0 0.0 0.00 0.00 0.00 63 1024.7
20260906073526 15 154 0.0 0.0 0.00 0.00 0.00 63 1024.6
20260906072522 15 154 0.0 0.0 0.00 0.00 0.00 60 1024.6
20260906071521 15 152 1.6 1.6 0.00 0.00 0.00 58 1024.5
20260906070518 15 205 3.2 3.2 0.00 0.00 0.00 60 1024.7
20260906065513 15 155 1.6 1.6 0.00 0.00 0.00 61 1024.7
20260906064510 15 164 0.0 0.0 0.00 0.00 0.00 65 1024.7
20260906063506 15 156 0.0 0.0 0.00 0.00 0.00 66 1024.8
20260906062502 15 155 1.6 0.0 0.00 0.00 0.00 65 1025.3
20260906061459 15 145 3.2 3.2 0.00 0.00 0.00 64 1024.7
20260906060456 16 154 0.0 0.0 0.00 0.00 0.00 66 1024.8
20260906055454 15 162 3.2 3.2 0.00 0.61 0.61 63 1025.0
20260906054449 16 158 0.0 0.0 0.00 0.61 0.61 65 1025.2
20260906053446 16 157 0.0 0.0 0.00 0.61 0.61 62 1025.1
20260906052443 16 157 0.0 0.0 0.00 0.61 0.61 64 1025.1
20260906051441 16 159 0.0 0.0 0.00 0.61 0.61 68 1025.1
20260906050436 16 158 0.0 0.0 0.00 0.61 0.61 62 1025.1
20260906045434 15 158 0.0 0.0 0.00 0.61 0.61 64 1025.1
20260906044431 16 158 0.0 0.0 0.00 0.61 0.61 63 1025.0
20260906043429 16 148 0.0 0.0 0.00 0.61 0.61 63 1025.5
20260906042423 16 148 1.6 1.6 0.00 0.61 0.61 63 1025.1
20260906041420 16 169 1.6 1.6 0.00 0.61 0.61 63 1025.2
20260906040415 16 169 0.0 0.0 0.00 0.61 0.61 59 1025.2
20260906035412 17 169 0.0 0.0 0.00 0.61 0.61 58 1024.7
20260906034407 17 169 0.0 0.0 0.00 0.61 0.61 57 1025.0
20260906033403 17 169 1.6 1.6 0.00 0.61 0.61 55 1024.8
20260906032400 18 169 0.0 0.0 0.00 0.61 0.61 57 1025.0
20260906031356 18 173 1.6 1.6 0.00 0.61 0.61 52 1024.8
20260906030352 19 174 1.6 1.6 0.00 0.61 0.61 52 1024.5
20260906025352 18 191 3.2 3.2 0.00 0.61 0.61 53 1024.5
20260906024350 18 183 1.6 1.6 0.00 0.61 0.61 55 1024.2
20260906023348 18 178 0.0 0.0 0.00 0.61 0.61 58 1024.2
20260906022343 19 178 0.0 0.0 0.00 0.61 0.61 57 1024.1
20260906021338 19 178 1.6 1.6 0.00 0.61 0.61 57 1023.8
20260906020338 19 178 1.6 1.6 0.00 0.61 0.61 60 1023.8
20260906015338 19 178 1.6 1.6 0.00 0.61 0.61 60 1023.7
20260906014339 18 178 0.0 0.0 0.00 0.61 0.61 66 1023.4
20260906013336 18 178 0.0 0.0 0.00 0.61 0.61 71 1023.3
20260906012332 19 178 0.0 0.0 0.00 0.61 0.61 71 1023.3
20260906011327 20 178 0.0 0.0 0.00 0.61 0.61 66 1023.6
20260906010325 20 178 0.0 0.0 0.00 0.61 0.61 65 1023.6
20260906005325 21 178 0.0 0.0 0.00 0.61 0.61 61 1023.7
20260906004324 22 178 0.0 0.0 0.00 0.61 0.61 57 1023.8
20260906003320 22 178 0.0 0.0 0.00 0.61 0.61 56 1023.7
20260906002321 22 178 3.2 3.2 0.00 0.61 0.61 55 1023.8
20260906001318 22 178 0.0 0.0 0.00 0.61 0.61 55 1023.6
20260906000313 23 178 1.6 1.6 0.00 0.61 0.61 53 1023.4
20260905235308 22 178 3.2 3.2 0.00 0.61 0.61 54 1023.6
20260905234304 23 170 0.0 0.0 0.00 0.61 0.61 56 1023.6
20260905233259 23 165 3.2 3.2 0.00 0.61 0.61 57 1024.0
20260905232254 22 181 1.6 1.6 0.00 0.61 0.61 57 1023.7
20260905231251 22 181 1.6 1.6 0.00 0.61 0.61 59 1023.7
20260905230251 20 181 0.0 0.0 0.00 0.61 0.61 64 1023.8
20260905225246 20 182 1.6 1.6 0.00 0.61 0.61 65 1024.1
20260905224241 21 182 3.2 3.2 0.00 0.61 0.61 60 1024.1
20260905223239 22 181 1.6 1.6 0.00 0.61 0.61 52 1024.2
20260905222234 22 170 1.6 1.6 0.00 0.61 0.61 53 1024.1